Overview Statistics Trail Chart Weather Telemetry Raw packets
 

This is the latest recevied weather packets stored in our database for station/object DL9BGG-13. If no packets are shown the sender has not sent any weather packets the latest 10 day(s).

<< 9 10 11 12 13 14 15 >>
Time Temp. Humidity Pressure Rain* Wind** Luminosity Snow
1788687987 25° C 49% 1071 hPa 0 mm - - -
1788687920 24.44° C 50% 1071.1 hPa 0 mm - - -
1788687840 24.44° C 50% 1070.9 hPa 0 mm - - -
1788687775 24.44° C 50% 1071 hPa 0 mm - - -
1788687709 24.44° C 49% 1070.9 hPa 0 mm - - -
1788687629 24.44° C 50% 1071.1 hPa 0 mm - - -
1788687555 24.44° C 51% 1071 hPa 0 mm - - -
1788687473 23.89° C 52% 1071 hPa 0 mm - - -
1788687393 23.89° C 53% 1071 hPa 0 mm - - -
1788687320 23.89° C 54% 1071.1 hPa 0 mm - - -
1788687255 23.33° C 54% 1071 hPa 0 mm - - -
1788687182 23.33° C 54% 1071.1 hPa 0 mm - - -
1788687108 22.78° C 56% 1071.1 hPa 0 mm - - -
1788687035 22.78° C 56% 1071.1 hPa 0 mm - - -
1788686949 22.78° C 57% 1071.1 hPa 0 mm - - -
1788686882 22.22° C 58% 1071.1 hPa 0 mm - - -
1788686816 21.67° C 59% 1071 hPa 0 mm - - -
1788686736 21.11° C 60% 1071.1 hPa 0 mm - - -
1788686670 21.11° C 60% 1071.1 hPa 0 mm - - -
1788686597 20.56° C 60% 1071.1 hPa 0 mm - - -
1788686523 20.56° C 59% 1071.1 hPa 0 mm - - -
1788686453 20.56° C 59% 1071.1 hPa 0 mm - - -
1788686387 21.11° C 58% 1071.2 hPa 0 mm - - -
1788686321 21.11° C 58% 1071.2 hPa 0 mm - - -
1788686257 21.67° C 57% 1071.3 hPa 0 mm - - -

* Rain latest hour (hover to see other rain measurements)
** Current wind speed in m/s (hover to see current wind gust speed)